15min,AgWx,beryljct,423,27FEB2021:00:00:00,39.1,12.81,35.6,35.5,35.8,36.6,35.4,44,45,43,0.313,16.3,16.5,16.0,12.89,13.5,321,6.1,18.3,0.00032,0.00038,36.1,36.6,12,0,0,.,7.12,0.00,0.00
15min,AgWx,beryljct,423,27FEB2021:00:15:00,38.0,12.81,34.7,34.5,34.9,35.5,34.5,45,45,44,0.307,15.7,16.0,15.5,11.88,12.8,333,7.8,16.6,0.00030,0.00035,36.0,36.6,12,0,0,.,7.12,0.00,0.00
15min,AgWx,beryljct,423,27FEB2021:00:30:00,37.2,12.8,35.1,34.5,34.4,34.6,34.2,46,46,45,0.307,15.6,15.7,15.4,12.85,11.9,328,7.3,14.8,0.00028,0.00033,36.0,36.6,12,0,0,.,7.13,0.00,0.00
15min,AgWx,beryljct,423,27FEB2021:00:45:00,36.5,12.78,34.6,34.2,34.1,34.6,33.5,45,47,43,0.288,14.9,15.7,14.1,7.3,7.1,25,33,11.8,0.00019,0.00025,35.9,36.6,12,0,0,.,7.12,0.00,0.00
15min,AgWx,beryljct,423,27FEB2021:01:00:00,35.9,12.78,32.0,32.0,33.4,34.3,32.0,45,48,43,0.291,14.2,14.6,13.9,4.253,5.1,19,17,7.7,0.00013,0.00018,35.8,36.6,12,0,0,.,7.12,0.00,0.00
15min,AgWx,beryljct,423,27FEB2021:01:15:00,34.8,12.77,31.9,30.5,30.7,32.0,28.9,50,53,48,0.306,14.3,15.5,13.0,6.599,4.5,48,12,7.8,0.00007,0.00011,35.8,36.6,12,0,0,.,7.13,0.00,0.00
15min,AgWx,beryljct,423,27FEB2021:01:30:00,33.7,12.76,29.0,28.6,29.7,31.1,28.6,56,59,53,0.313,15.9,16.5,15.2,9.25,5.8,44,12,9.3,0.00009,0.00012,35.7,36.6,12,0,0,.,7.13,0.00,0.00
15min,AgWx,beryljct,423,27FEB2021:01:45:00,32.6,12.76,29.3,28.5,29.1,29.8,28.4,59,61,58,0.324,16.6,17.3,16.1,5.108,5.7,63,12,10.4,0.00007,0.00010,35.6,36.6,12,0,0,.,7.13,0.00,0.00
15min,AgWx,beryljct,423,27FEB2021:02:00:00,31.6,12.74,28.8,28.2,28.2,28.6,27.7,62,63,61,0.332,17.0,17.4,16.5,7.563,5.8,51,17,8.4,0.00006,0.00008,35.5,36.6,12,0,0,.,7.13,0.00,0.00
15min,AgWx,beryljct,423,27FEB2021:02:15:00,30.9,12.74,27.5,27.4,27.9,28.4,27.4,64,64,63,0.325,17.2,17.6,16.8,5.765,5.7,57,12,9.2,0.00005,0.00008,35.4,36.6,12,0,0,.,7.13,0.00,0.00
15min,AgWx,beryljct,423,27FEB2021:02:30:00,30.1,12.73,26.9,26.6,27.2,27.7,26.6,65,66,64,0.324,17.1,17.4,16.7,6.379,5.8,55,8.0,8.5,0.00005,0.00007,35.3,36.6,12,0,0,.,7.13,0.00,0.00
15min,AgWx,beryljct,423,27FEB2021:02:45:00,29.4,12.73,25.9,25.4,26.1,26.8,25.3,67,69,66,0.320,16.8,17.3,16.2,5.086,6.1,56,7.2,8.8,0.00004,0.00006,35.2,36.6,12,0,0,.,7.13,0.00,0.00
15min,AgWx,beryljct,423,27FEB2021:03:00:00,28.4,12.71,24.8,24.4,24.7,25.4,24.2,70,70,68,0.314,16.2,16.5,15.8,5.174,5.8,39,10,7.4,0.00003,0.00004,35.0,36.6,12,0,0,.,7.14,0.00,0.00
15min,AgWx,beryljct,423,27FEB2021:03:15:00,27.5,12.71,24.9,24.2,24.0,25.2,22.5,71,73,68,0.319,15.8,16.8,14.6,4.735,4.5,25,21,6.1,-0.00000,0.00001,34.9,36.6,12,0,0,.,7.14,0.00,0.00
15min,AgWx,beryljct,423,27FEB2021:03:30:00,26.6,12.69,24.0,23.4,23.5,24.4,23.1,73,74,71,0.317,16.0,16.6,15.6,4.801,5.2,31,11,6.8,0.00001,0.00002,34.8,36.6,12,0,0,.,7.14,0.00,0.00
15min,AgWx,beryljct,423,27FEB2021:03:45:00,25.9,12.66,23.1,23.0,23.1,24.1,21.2,73,76,71,0.316,15.8,16.7,13.8,5.196,4.8,5.1,20,7.6,-0.00000,0.00001,34.6,36.5,12,0,0,.,7.14,0.00,0.00
15min,AgWx,beryljct,423,27FEB2021:04:00:00,25.3,12.67,20.6,20.2,22.3,24.4,19.8,74,77,71,0.289,15.4,17.5,13.3,3.442,4.1,349,39,7.1,-0.00002,-0.00002,34.6,36.5,12,0,0,.,7.14,0.00,0.00
15min,AgWx,beryljct,423,27FEB2021:04:15:00,24.2,12.66,22.0,21.3,20.5,21.4,19.3,78,80,77,0.313,14.7,16.1,13.2,5.897,3.9,309,9.3,5.9,-0.00003,-0.00003,34.5,36.5,12,0,0,.,7.15,0.00,0.00
15min,AgWx,beryljct,423,27FEB2021:04:30:00,23.5,12.65,18.9,19.3,20.8,22.1,19.3,78,80,76,0.281,15.1,16.5,13.6,3.551,5.1,316,11,7.7,-0.00001,-0.00001,34.4,36.5,12,0,0,.,7.15,0.00,0.00
15min,AgWx,beryljct,423,27FEB2021:04:45:00,22.7,12.64,21.8,20.6,19.4,20.6,18.8,80,81,78,0.308,14.3,15.6,13.4,3.551,4.2,301,7.5,5.5,-0.00003,-0.00003,34.4,36.4,12,0,0,.,7.15,0.00,0.00
15min,AgWx,beryljct,423,27FEB2021:05:00:00,22.0,12.63,20.9,18.8,19.4,20.8,17.8,79,82,77,0.287,14.0,15.8,12.2,4.231,4.7,303,5.6,5.7,-0.00002,-0.00002,34.3,36.4,12,0,0,.,7.15,0.00,0.00
15min,AgWx,beryljct,423,27FEB2021:05:15:00,21.3,12.61,19.9,20.0,19.1,20.1,17.5,81,83,78,0.308,14.1,15.8,12.3,2.477,3.3,307,12,5.0,-0.00005,-0.00005,34.2,36.4,12,0,0,.,7.15,0.00,0.00
15min,AgWx,beryljct,423,27FEB2021:05:30:00,20.7,12.6,20.3,19.4,19.7,21.0,17.2,80,84,78,0.286,14.6,16.4,11.6,5.612,3.6,307,11,5.7,-0.00004,-0.00005,34.2,36.3,12,0,0,.,7.15,0.00,0.00
15min,AgWx,beryljct,423,27FEB2021:05:45:00,20.3,12.59,18.2,18.0,18.3,19.6,17.4,81,83,79,0.283,13.5,14.6,12.7,5.283,5.4,306,5.0,6.8,-0.00002,-0.00001,34.1,36.3,12,0,0,.,7.15,0.00,0.00
15min,AgWx,beryljct,423,27FEB2021:06:00:00,20.0,12.58,18.8,18.3,18.2,19.2,17.1,83,85,82,0.286,14.0,15.4,12.7,5.415,5.9,297,5.4,8.6,-0.00002,-0.00001,34.0,36.3,12,0,0,.,7.15,0.00,0.00
15min,AgWx,beryljct,423,27FEB2021:06:15:00,19.8,12.58,19.1,18.7,18.4,18.9,17.7,83,85,82,0.288,14.1,14.6,13.3,4.911,5.0,298,4.5,6.2,-0.00003,-0.00002,34.0,36.3,12,0,0,.,7.15,0.00,0.00
15min,AgWx,beryljct,423,27FEB2021:06:30:00,19.6,12.58,21.3,20.4,19.2,20.4,18.3,79,82,75,0.286,13.8,14.6,11.9,4.604,4.9,291,5.1,6.5,0.00011,0.00019,33.9,36.2,12,0,0,.,7.16,0.00,0.00
15min,AgWx,beryljct,423,27FEB2021:06:45:00,19.4,12.57,19.2,19.7,19.5,20.6,18.3,72,76,69,0.252,11.8,13.9,11.0,4.231,4.8,284,5.6,5.6,0.00014,0.00025,33.9,36.2,12,0,0,.,7.16,0.00,0.00
15min,AgWx,beryljct,423,27FEB2021:07:00:00,19.1,12.54,18.6,17.3,17.8,19.5,16.3,74,80,69,0.264,10.9,12.1,8.8,5.086,3.9,291,6.3,5.5,0.00011,0.00019,33.8,36.2,12,1,0,.,7.16,0.00,0.00
15min,AgWx,beryljct,423,27FEB2021:07:15:00,18.9,12.57,19.9,19.8,19.3,19.9,17.5,67,80,59,0.217,9.9,12.9,7.8,6.335,6.1,284,6.0,7.7,0.00021,0.00036,33.8,36.2,12,5,0,.,7.16,0.00,0.00
15min,AgWx,beryljct,423,27FEB2021:07:30:00,19.1,12.66,20.9,20.4,19.9,20.4,19.4,58,60,57,0.215,7.5,7.8,7.3,6.182,5.3,284,7.9,7.3,0.00031,0.00048,33.7,36.1,13,32,0,.,7.16,0.00,0.00
15min,AgWx,beryljct,423,27FEB2021:07:45:00,19.8,12.87,19.4,18.5,19.9,21.4,17.8,60,70,55,0.245,8.1,10.4,6.9,5.744,3.8,215,94,6.1,0.00036,0.00050,33.6,36.1,13,81,0,.,7.16,0.00,0.00
15min,AgWx,beryljct,423,27FEB2021:08:00:00,20.6,13.17,18.0,17.5,18.0,19.6,17.3,73,77,67,0.250,10.8,11.6,9.8,4.297,4.3,132,14,6.5,0.00037,0.00048,33.6,36.1,12,125,0,.,7.16,0.00,0.00
15min,AgWx,beryljct,423,27FEB2021:08:15:00,21.5,13.73,21.6,21.1,19.9,21.3,17.5,69,76,64,0.273,11.4,12.9,10.4,2.938,2.0,147,33,5.7,0.00049,0.00057,33.5,36.0,12,170,0,.,7.16,0.00,0.00
15min,AgWx,beryljct,423,27FEB2021:08:30:00,23.1,14.91,22.6,21.7,21.4,22.4,20.9,70,73,63,0.261,13.2,14.0,11.6,6.993,6.1,106,12,9.0,0.00064,0.00081,33.5,36.0,12,220,0,.,7.16,0.00,0.00
15min,AgWx,beryljct,423,27FEB2021:08:45:00,24.8,14.89,24.7,24.7,23.2,24.7,21.6,62,68,54,0.248,12.0,13.3,10.1,5.546,5.9,131,10,8.1,0.00084,0.00106,33.4,35.9,12,269,0,.,7.15,0.00,0.00
15min,AgWx,beryljct,423,27FEB2021:09:00:00,26.9,14.82,25.9,26.0,25.3,26.3,24.4,50,54,47,0.228,9.4,10.5,7.9,4.779,4.6,138,13,6.2,0.00107,0.00133,33.4,35.9,12,320,0,.,7.15,0.00,0.00
15min,AgWx,beryljct,423,27FEB2021:09:15:00,29.0,14.83,27.7,27.2,26.4,27.4,25.7,45,48,44,0.221,8.1,9.0,7.1,3.464,3.7,124,18,5.5,0.00126,0.00152,33.3,35.9,12,370,0,.,7.15,0.00,0.00
15min,AgWx,beryljct,423,27FEB2021:09:30:00,31.2,14.77,29.8,29.4,28.0,29.6,26.8,41,44,40,0.227,7.6,9.1,6.7,3.157,3.3,151,25,7.7,0.00146,0.00175,33.3,35.9,12,417,0,.,7.15,0.00,0.00
15min,AgWx,beryljct,423,27FEB2021:09:45:00,33.2,14.8,29.3,28.9,29.0,29.8,28.3,39,41,38,0.202,7.4,8.6,6.2,2.762,3.1,150,40,5.2,0.00165,0.00195,33.2,35.8,12,463,0,.,7.15,0.00,0.00
15min,AgWx,beryljct,423,27FEB2021:10:00:00,35.1,14.68,29.8,29.8,29.8,30.6,28.9,37,39,35,0.204,6.7,7.9,5.6,3.683,3.5,164,31,7.7,0.00183,0.00217,33.2,35.8,12,506,0,.,7.15,0.00,0.00
15min,AgWx,beryljct,423,27FEB2021:10:15:00,36.4,14.68,32.7,32.1,31.4,33.0,29.6,32,36,26,0.167,4.8,6.8,1.1,13.46,7.6,349,88,17.9,0.00209,0.00267,33.2,35.8,12,548,0,.,7.15,0.00,0.00
15min,AgWx,beryljct,423,27FEB2021:10:30:00,37.2,14.29,34.4,33.0,32.8,33.7,31.8,27,28,26,0.163,2.5,3.9,1.0,10.79,12.4,325,16,17.3,0.00236,0.00319,33.2,35.7,12,585,0,.,7.15,0.00,0.00
15min,AgWx,beryljct,423,27FEB2021:10:45:00,37.9,14.37,35.5,34.3,33.7,34.7,32.7,26,27,25,0.173,2.4,3.6,0.8,16.16,13.7,323,14,19.1,0.00252,0.00344,33.1,35.7,12,620,0,.,7.15,0.00,0.00
15min,AgWx,beryljct,423,27FEB2021:11:00:00,38.4,14.23,33.1,34.3,34.4,35.2,33.8,25,26,24,0.164,2.1,3.4,0.7,18.79,17.7,328,15,25.2,0.00267,0.00374,33.1,35.7,12,652,0,.,7.15,0.00,0.00
15min,AgWx,beryljct,423,27FEB2021:11:15:00,38.9,14.21,35.1,35.2,34.9,35.9,33.9,25,26,23,0.171,2.6,4.3,0.6,18.92,15.4,331,15,21.7,0.00277,0.00379,33.1,35.6,12,682,0,.,7.15,0.00,0.00
15min,AgWx,beryljct,423,27FEB2021:11:30:00,39.4,14.24,34.6,34.7,34.9,35.9,34.0,25,26,24,0.166,2.6,4.1,1.1,11.2,14.0,315,11,18.9,0.00283,0.00381,33.1,35.6,12,708,0,.,7.14,0.00,0.00
15min,AgWx,beryljct,423,27FEB2021:11:45:00,40.0,14.2,33.5,35.2,35.0,35.9,34.0,25,26,23,0.177,2.3,3.7,1.1,14.07,13.0,323,18,20.0,0.00290,0.00385,33.1,35.6,12,733,0,.,7.14,0.00,0.00
15min,AgWx,beryljct,423,27FEB2021:12:00:00,40.8,14.33,36.2,35.8,34.6,35.8,33.6,26,27,25,0.184,2.8,4.4,1.8,13.46,9.3,330,15,14.5,0.00304,0.00384,33.1,35.6,12,795,0,.,7.14,0.00,0.00
15min,AgWx,beryljct,423,27FEB2021:12:15:00,41.6,14.18,34.6,34.4,35.3,36.2,34.2,24,26,23,0.164,2.4,4.0,1.1,10.04,11.4,327,17,18.0,0.00277,0.00368,33.1,35.6,12,664,0,.,7.14,0.00,0.00
15min,AgWx,beryljct,423,27FEB2021:12:30:00,41.1,14.19,36.2,35.9,34.5,36.0,33.6,25,26,24,0.180,2.3,4.2,1.1,12.63,10.8,307,29,18.4,0.00212,0.00294,33.1,35.5,12,422,0,.,7.13,0.00,0.00
15min,AgWx,beryljct,423,27FEB2021:12:45:00,40.5,14.2,38.8,36.2,34.9,36.2,34.0,25,26,24,0.182,2.4,3.9,1.5,11.88,12.6,289,13,17.0,0.00225,0.00315,33.2,35.5,12,452,0,.,7.13,0.00,0.00
15min,AgWx,beryljct,423,27FEB2021:13:00:00,40.1,14.2,33.7,33.7,34.6,36.6,33.7,28,29,25,0.190,4.8,6.0,3.4,7.41,13.0,344,23,19.2,0.00219,0.00307,33.3,35.5,12,447,0,.,7.13,0.00,0.00
15min,AgWx,beryljct,423,27FEB2021:13:15:00,39.8,14.2,33.6,33.8,34.1,34.8,33.5,30,31,29,0.189,5.7,6.7,4.7,9.29,9.3,352,15,13.8,0.00200,0.00271,33.6,35.4,12,424,0,.,7.13,0.00,0.00
15min,AgWx,beryljct,423,27FEB2021:13:30:00,39.9,14.23,35.2,34.5,33.9,34.9,33.2,29,30,27,0.194,5.2,6.4,3.7,12.14,6.3,345,33,15.4,0.00180,0.00235,33.8,35.4,12,379,0,.,7.13,0.00,0.00
15min,AgWx,beryljct,423,27FEB2021:13:45:00,39.6,14.24,33.8,34.0,33.9,34.8,33.1,28,29,26,0.173,3.9,5.8,2.8,9.69,9.2,349,15,16.6,0.00163,0.00232,34.1,35.4,12,269,0,.,7.13,0.00,0.00
15min,AgWx,beryljct,423,27FEB2021:14:00:00,38.9,14.25,33.3,33.9,34.1,34.9,33.6,29,31,26,0.189,5.1,6.9,2.2,10.33,13.6,323,23,20.7,0.00181,0.00266,34.4,35.4,12,301,0,.,7.13,0.00,0.00
15min,AgWx,beryljct,423,27FEB2021:14:15:00,38.4,14.23,34.5,33.2,33.4,34.2,32.8,27,30,24,0.187,3.1,5.6,0.2,6.467,7.9,305,31,11.7,0.00157,0.00220,34.7,35.4,12,278,0,.,7.13,0.00,0.00
15min,AgWx,beryljct,423,27FEB2021:14:30:00,39.0,14.22,34.3,34.8,34.4,35.5,33.4,28,32,26,0.221,4.4,8.2,3.1,20.12,7.8,346,24,20.1,0.00221,0.00287,34.9,35.4,12,549,0,.,7.13,0.00,0.00
15min,AgWx,beryljct,423,27FEB2021:14:45:00,38.6,14.26,33.7,33.2,33.0,34.7,32.0,36,38,32,0.236,8.6,9.7,7.3,11.42,15.3,3.1,14,23.7,0.00151,0.00231,35.2,35.4,12,221,0,.,7.13,0.00,0.00
15min,AgWx,beryljct,423,27FEB2021:15:00:00,38.0,14.22,33.4,33.3,33.1,34.0,32.3,35,36,34,0.219,8.4,9.5,7.7,10.57,9.6,48,21,14.3,0.00141,0.00203,35.4,35.5,12,252,0,.,7.13,0.00,0.00
15min,AgWx,beryljct,423,27FEB2021:15:15:00,37.7,14.24,33.9,34.0,33.5,34.2,32.9,31,34,27,0.198,6.2,8.3,3.7,11.77,8.3,358,24,12.5,0.00128,0.00188,35.6,35.5,12,194,0,.,7.12,0.00,0.00
15min,AgWx,beryljct,423,27FEB2021:15:30:00,37.0,13.26,31.9,32.5,33.0,33.9,32.5,34,36,30,0.226,7.7,8.7,5.9,11,14.1,351,13,18.8,0.00126,0.00202,35.8,35.5,12,97,0,.,7.13,0.00,0.00
15min,AgWx,beryljct,423,27FEB2021:15:45:00,36.2,13.25,33.0,32.7,32.1,32.7,31.4,35,39,32,0.207,7.5,9.3,5.7,21.51,11.6,353,24,21.5,0.00114,0.00180,36.0,35.6,12,128,0,.,7.13,0.00,0.00
15min,AgWx,beryljct,423,27FEB2021:16:00:00,35.5,13.16,32.1,31.3,31.4,32.7,30.9,37,40,33,0.218,8.4,10.0,6.8,15.63,18.9,339,10,24.1,0.00126,0.00206,36.1,35.6,12,122,0,.,7.13,0.00,0.00
15min,AgWx,beryljct,423,27FEB2021:16:15:00,34.8,13.28,32.3,32.1,31.7,32.1,31.3,32,37,25,0.162,4.7,7.9,0.1,10.28,12.8,336,9.1,20.2,0.00114,0.00185,36.1,35.6,12,113,0,.,7.13,0.00,0.00
15min,AgWx,beryljct,423,27FEB2021:16:30:00,34.7,14.32,33.2,32.9,32.5,33.1,31.9,25,26,24,0.151,0.7,1.4,-0.2,12.8,11.7,352,12,14.9,0.00135,0.00212,36.2,35.7,12,243,0,.,7.13,0.00,0.00
15min,AgWx,beryljct,423,27FEB2021:16:45:00,35.0,14.27,33.3,32.9,32.8,33.0,32.5,24,25,20,0.128,-0.4,1.1,-3.6,19.14,12.9,333,15,20.5,0.00112,0.00194,36.2,35.7,12,129,0,.,7.13,0.00,0.00
15min,AgWx,beryljct,423,27FEB2021:17:00:00,35.2,14.33,34.4,34.3,33.3,34.6,32.7,21,21,20,0.136,-2.8,-1.4,-4.1,15.04,16.3,328,6.9,21.4,0.00170,0.00270,36.2,35.8,12,276,0,.,7.13,0.00,0.00
15min,AgWx,beryljct,423,27FEB2021:17:15:00,36.2,14.24,34.4,34.2,34.4,35.2,34.0,19,20,18,0.119,-3.6,-1.5,-5.1,15.08,15.5,330,8.9,22.4,0.00184,0.00287,36.2,35.8,12,306,0,.,7.13,0.00,0.00
15min,AgWx,beryljct,423,27FEB2021:17:30:00,36.8,14.22,32.7,32.5,33.5,34.4,32.5,27,35,17,0.219,2.4,8.6,-6.4,15.21,14.6,358,15,21.9,0.00061,0.00068,36.3,35.9,12,217,0,.,7.13,0.00,0.00
15min,AgWx,beryljct,423,27FEB2021:17:45:00,36.2,13.2,30.8,30.6,31.6,32.5,30.5,37,38,35,0.220,8.4,8.9,7.7,11.71,13.0,14,10,17.1,0.00044,0.00049,36.3,35.9,12,101,0,.,7.12,0.00,0.00
15min,AgWx,beryljct,423,27FEB2021:18:00:00,34.9,13.2,30.5,30.4,30.6,30.9,30.3,39,40,38,0.229,8.5,9.1,8.0,8.66,10.5,10,8.7,14.9,0.00038,0.00043,36.3,36.0,12,76,0,.,7.13,0.00,0.00
15min,AgWx,beryljct,423,27FEB2021:18:15:00,33.4,13.06,30.0,29.6,29.9,30.5,29.6,39,40,38,0.213,8.1,9.1,7.3,6.555,8.1,8.9,7.0,10.7,0.00030,0.00036,36.3,36.0,12,21,0,.,7.13,0.00,0.00
15min,AgWx,beryljct,423,27FEB2021:18:30:00,32.1,12.98,29.8,29.1,29.3,29.6,28.9,37,38,35,0.193,6.4,7.3,5.1,5.612,6.4,11,7.3,8.9,0.00026,0.00032,36.2,36.1,13,6,0,.,7.13,0.00,0.00
15min,AgWx,beryljct,423,27FEB2021:18:45:00,30.9,12.96,27.8,27.5,28.4,29.2,27.4,34,35,34,0.172,3.9,5.1,2.7,5.48,5.6,0.2,10,8.1,0.00024,0.00031,36.2,36.1,12,1,0,.,7.13,0.00,0.00
15min,AgWx,beryljct,423,27FEB2021:19:00:00,29.6,12.93,25.3,26.2,26.4,27.5,24.9,35,37,34,0.174,2.4,3.0,1.3,4.341,4.3,3.7,12,5.5,0.00019,0.00025,36.0,36.1,12,0,0,.,7.13,0.00,0.00
15min,AgWx,beryljct,423,27FEB2021:19:15:00,28.4,12.91,23.4,23.2,25.0,26.8,23.2,37,39,36,0.167,2.6,3.1,1.5,2.762,3.4,338,27,5.4,0.00015,0.00020,35.9,36.2,12,0,0,.,7.13,0.00,0.00
15min,AgWx,beryljct,423,27FEB2021:19:30:00,27.0,12.9,21.9,21.3,22.4,23.5,21.3,42,45,39,0.177,3.0,3.4,2.1,4.341,3.2,309,12,4.3,0.00012,0.00016,35.8,36.2,12,0,0,.,7.13,0.00,0.00
15min,AgWx,beryljct,423,27FEB2021:19:45:00,26.1,12.88,24.0,24.0,23.4,25.4,21.1,42,46,39,0.183,3.8,4.9,3.3,4.845,5.7,5.5,31,9.5,0.00018,0.00022,35.6,36.2,12,0,0,.,7.13,0.00,0.00
15min,AgWx,beryljct,423,27FEB2021:20:00:00,25.9,12.88,26.1,24.7,23.9,24.7,23.4,42,43,40,0.195,4.1,5.4,3.7,8.2,5.1,360,27,8.8,0.00017,0.00022,35.4,36.3,12,0,0,.,7.13,0.00,0.00
15min,AgWx,beryljct,423,27FEB2021:20:15:00,26.3,12.86,26.1,25.8,26.0,26.6,24.8,43,44,42,0.201,6.7,7.5,5.6,4.867,5.3,10,13,9.6,0.00019,0.00023,35.3,36.3,12,0,0,.,7.13,0.00,0.00
15min,AgWx,beryljct,423,27FEB2021:20:30:00,26.5,12.85,24.7,24.2,24.7,25.9,24.0,46,49,42,0.216,6.6,7.7,5.9,5.502,4.5,331,17,5.6,0.00015,0.00020,35.1,36.3,12,0,0,.,7.13,0.00,0.00
15min,AgWx,beryljct,423,27FEB2021:20:45:00,26.3,12.85,25.5,25.2,24.6,25.2,24.1,49,50,49,0.226,8.3,8.8,7.7,3.179,4.9,353,16,6.7,0.00015,0.00019,34.9,36.3,12,0,0,.,7.13,0.00,0.00
15min,AgWx,beryljct,423,27FEB2021:21:00:00,25.9,12.84,23.1,22.9,24.1,25.1,22.9,50,52,49,0.218,8.3,8.7,7.6,2.521,1.9,19,22,3.7,0.00006,0.00009,34.8,36.3,13,0,0,.,7.13,0.00,0.00
15min,AgWx,beryljct,423,27FEB2021:21:15:00,25.2,12.83,22.6,22.0,22.7,23.8,21.7,53,56,51,0.225,8.3,8.6,7.8,3.047,3.4,308,9.0,4.4,0.00010,0.00013,34.6,36.3,13,0,0,.,7.13,0.00,0.00
15min,AgWx,beryljct,423,27FEB2021:21:30:00,24.4,12.81,21.4,21.1,22.3,22.8,21.1,55,57,54,0.222,8.7,9.0,8.3,0.789,1.9,313,14,3.3,0.00004,0.00007,34.5,36.3,12,0,0,.,7.13,0.00,0.00
15min,AgWx,beryljct,423,27FEB2021:21:45:00,23.7,12.81,22.7,22.1,21.3,22.1,20.9,59,60,57,0.240,9.1,10.0,8.3,2.236,0.5,325,8.8,2.7,-0.00002,-0.00003,34.4,36.3,12,0,0,.,7.13,0.00,0.00
15min,AgWx,beryljct,423,27FEB2021:22:00:00,23.7,12.8,23.3,23.0,23.0,23.5,22.1,58,59,57,0.242,10.3,10.6,9.8,1.578,3.0,347,8.6,4.4,0.00007,0.00010,34.4,36.3,12,0,0,.,7.13,0.00,0.00
15min,AgWx,beryljct,423,27FEB2021:22:15:00,24.1,12.8,25.1,24.7,24.0,24.7,23.0,57,58,57,0.261,11.1,11.9,10.2,5.7,4.1,20,15,6.5,0.00010,0.00013,34.3,36.3,12,0,0,.,7.13,0.00,0.00
15min,AgWx,beryljct,423,27FEB2021:22:30:00,24.4,12.78,23.6,24.2,24.3,24.7,23.8,59,60,58,0.265,12.0,12.5,11.7,4.099,4.3,19,11,5.9,0.00010,0.00014,34.2,36.3,12,0,0,.,7.13,0.00,0.00
15min,AgWx,beryljct,423,27FEB2021:22:45:00,24.2,12.78,22.0,22.0,22.7,24.1,22.0,61,62,59,0.250,11.2,12.1,10.5,0.636,1.7,328,18,4.0,0.00003,0.00005,34.2,36.2,12,0,0,.,7.14,0.00,0.00
15min,AgWx,beryljct,423,27FEB2021:23:00:00,23.3,12.76,20.0,20.0,20.6,22.0,19.4,64,67,62,0.244,10.5,11.0,9.7,2.192,2.0,307,18,3.7,0.00003,0.00005,34.1,36.2,12,0,0,.,7.14,0.00,0.00
15min,AgWx,beryljct,423,27FEB2021:23:15:00,22.1,12.77,20.8,19.9,19.7,20.4,18.9,67,68,66,0.251,10.4,11.4,9.6,2.543,1.8,321,11,2.7,0.00002,0.00003,34.1,36.2,12,0,0,.,7.14,0.00,0.00
15min,AgWx,beryljct,423,27FEB2021:23:30:00,21.2,12.75,20.1,20.4,20.1,20.7,19.7,67,69,66,0.254,11.0,11.9,10.1,3.595,3.0,310,15,4.1,0.00005,0.00007,34.0,36.2,12,0,0,.,7.14,0.00,0.00
15min,AgWx,beryljct,423,27FEB2021:23:45:00,20.6,12.74,19.3,19.4,19.5,20.3,18.2,69,70,67,0.246,10.9,11.7,9.6,2.631,2.7,323,10,3.5,0.00004,0.00005,33.9,36.1,13,0,0,.,7.14,0.00,0.00
15min,AgWx,bigpiney,439,27FEB2021:00:00:00,16.4,12.65,16.3,14.8,14.9,15.4,14.5,83,84,81,0.239,10.7,11.2,9.8,9.49,3.6,300,26,9.5,0.00001,0.00001,26.2,28.1,8,0,0,0.0,0.19,0.00,0.00
15min,AgWx,bigpiney,439,27FEB2021:00:15:00,16.4,12.64,14.1,13.6,14.8,15.6,13.6,74,80,73,0.208,8.0,10.0,6.8,6.642,8.9,260,7.7,14.3,0.00006,0.00007,26.2,28.1,8,0,0,0.0,0.19,0.00,0.00
15min,AgWx,bigpiney,439,27FEB2021:00:30:00,16.1,12.64,15.9,15.2,14.2,15.2,13.2,69,74,62,0.187,5.7,6.8,4.4,16.33,11.9,272,13,18.6,0.00009,0.00010,26.2,28.0,8,0,0,0.0,0.19,0.00,0.00
15min,AgWx,bigpiney,439,27FEB2021:00:45:00,16.1,12.64,15.9,15.5,15.2,15.6,15.1,61,62,58,0.179,4.2,4.5,3.5,12.87,15.6,285,8.1,21.1,0.00013,0.00014,26.1,28.1,8,0,0,0.0,0.19,0.00,0.00
15min,AgWx,bigpiney,439,27FEB2021:01:00:00,16.1,12.63,14.4,14.1,14.8,15.5,13.9,59,62,57,0.177,3.2,3.6,2.8,9.14,8.7,291,10,16.9,0.00011,0.00012,26.1,28.1,8,0,0,0.0,0.19,0.00,0.00
15min,AgWx,bigpiney,439,27FEB2021:01:15:00,16.0,12.61,13.5,13.2,13.7,14.1,13.2,63,64,61,0.174,3.5,4.0,2.9,12.17,11.0,260,8.6,13.8,0.00010,0.00011,26.0,28.1,8,0,0,0.0,0.19,0.00,0.00
15min,AgWx,bigpiney,439,27FEB2021:01:30:00,15.5,12.62,12.9,12.5,12.5,13.2,12.1,63,64,63,0.170,2.4,2.9,2.2,14.51,13.0,246,7.6,17.2,0.00010,0.00011,26.0,28.0,8,0,0,0.0,0.19,0.00,0.00
15min,AgWx,bigpiney,439,27FEB2021:01:45:00,14.9,12.6,11.6,11.5,12.2,12.6,11.5,63,64,63,0.162,2.1,2.5,1.4,10.28,11.8,257,9.4,16.1,0.00010,0.00011,25.9,28.0,8,0,0,0.0,0.19,0.00,0.00
15min,AgWx,bigpiney,439,27FEB2021:02:00:00,14.2,12.61,11.3,10.6,10.5,11.5,10.2,65,66,63,0.162,1.0,1.4,0.7,13.83,11.8,254,9.6,14.3,0.00009,0.00010,25.9,28.0,8,0,0,0.0,0.19,0.00,0.00
15min,AgWx,bigpiney,439,27FEB2021:02:15:00,13.5,12.6,10.6,9.9,10.3,10.8,9.8,65,66,64,0.156,0.9,1.4,0.5,8.7,11.0,235,8.1,15.3,0.00008,0.00009,25.8,28.0,8,0,0,0.0,0.19,0.00,0.00
15min,AgWx,bigpiney,439,27FEB2021:02:30:00,12.7,12.58,10.3,9.3,9.0,10.0,8.3,66,67,65,0.155,0.1,0.7,-0.6,5.064,6.1,226,3.6,8.2,0.00006,0.00007,25.7,28.0,8,0,0,0.0,0.19,0.00,0.00
15min,AgWx,bigpiney,439,27FEB2021:02:45:00,11.8,12.58,9.7,9.6,9.6,10.1,8.9,67,69,66,0.156,0.9,1.6,0.4,2.258,4.0,205,16,6.4,0.00004,0.00005,25.7,28.0,8,0,0,0.0,0.19,0.00,0.00
15min,AgWx,bigpiney,439,27FEB2021:03:00:00,10.9,12.58,8.3,9.0,9.3,10.1,8.8,67,68,65,0.149,0.5,1.3,-0.4,1.929,2.3,128,17,4.2,0.00002,0.00003,25.6,28.0,8,0,0,0.0,0.19,0.00,0.00
15min,AgWx,bigpiney,439,27FEB2021:03:15:00,10.1,12.55,13.3,12.2,9.3,12.2,6.9,66,69,63,0.166,0.3,1.9,-2.0,1.008,2.4,86,13,5.1,0.00002,0.00003,25.5,28.0,8,0,0,0.0,0.19,0.00,0.00
15min,AgWx,bigpiney,439,27FEB2021:03:30:00,9.5,12.56,13.4,12.2,12.1,12.7,11.2,62,63,60,0.164,1.5,2.3,0.2,4.165,2.9,170,45,5.5,0.00004,0.00005,25.5,27.9,8,0,0,0.0,0.19,0.00,0.00
15min,AgWx,bigpiney,439,27FEB2021:03:45:00,9.3,12.55,6.3,7.8,11.2,12.4,7.8,63,65,61,0.136,1.0,2.1,-2.3,5.744,2.4,123,53,5.7,0.00002,0.00004,25.4,27.9,8,0,0,0.0,0.19,0.00,0.00
15min,AgWx,bigpiney,439,27FEB2021:04:00:00,9.0,12.54,5.5,4.2,4.7,7.6,3.7,69,71,63,0.131,-3.2,-2.4,-4.4,4.779,3.8,101,25,5.6,0.00003,0.00004,25.3,28.0,8,0,0,0.0,0.19,0.00,0.00
15min,AgWx,bigpiney,439,27FEB2021:04:15:00,8.3,12.52,8.0,5.0,5.1,6.5,4.2,71,73,69,0.135,-2.2,-0.8,-3.5,5.634,4.9,147,14,6.2,0.00003,0.00004,25.2,27.8,8,0,0,0.0,0.19,0.00,0.00
15min,AgWx,bigpiney,439,27FEB2021:04:30:00,7.8,12.52,8.4,6.8,6.9,8.4,5.4,70,73,68,0.145,-0.9,1.6,-2.4,4.801,4.7,169,12,5.5,0.00004,0.00005,25.1,27.9,8,0,0,0.0,0.19,0.00,0.00
15min,AgWx,bigpiney,439,27FEB2021:04:45:00,7.3,12.51,8.2,6.0,6.7,9.8,3.8,70,75,67,0.150,-1.1,2.7,-4.1,0,3.7,182,53,5.6,0.00003,0.00004,25.0,27.8,8,0,0,0.0,0.19,0.00,0.00
15min,AgWx,bigpiney,439,27FEB2021:05:00:00,6.7,12.51,3.1,3.0,3.7,6.5,2.9,74,76,71,0.131,-2.7,0.3,-3.6,2.587,2.9,342,28,5.9,0.00001,0.00002,24.9,27.8,8,0,0,0.0,0.19,0.00,0.00
15min,AgWx,bigpiney,439,27FEB2021:05:15:00,6.2,12.48,6.2,4.7,4.2,4.9,2.9,75,77,74,0.143,-1.9,-1.2,-3.5,0.197,1.4,252,45,4.8,-0.00001,-0.00001,24.9,27.8,8,0,0,0.0,0.19,0.00,0.00
15min,AgWx,bigpiney,439,27FEB2021:05:30:00,6.0,12.49,2.9,3.3,4.2,5.9,2.5,75,78,74,0.135,-1.9,0.0,-3.5,3.157,2.1,27,42,5.4,0.00000,0.00000,24.8,27.8,8,0,0,0.0,0.19,0.00,0.00
15min,AgWx,bigpiney,439,27FEB2021:05:45:00,5.8,12.47,3.9,3.5,2.7,3.6,1.6,78,80,76,0.139,-2.6,-1.5,-3.8,2.499,2.4,355,27,4.6,0.00000,0.00001,24.7,27.8,8,0,0,0.0,0.19,0.00,0.00
15min,AgWx,bigpiney,439,27FEB2021:06:00:00,5.7,12.47,4.5,4.1,3.5,4.1,2.9,78,79,78,0.143,-1.8,-1.3,-2.4,3.968,3.9,356,22,6.1,0.00001,0.00002,24.6,27.7,8,0,0,0.0,0.19,0.00,0.00
15min,AgWx,bigpiney,439,27FEB2021:06:15:00,5.9,12.46,6.6,6.2,5.1,6.4,3.9,78,79,76,0.155,-0.3,0.8,-1.5,2.083,3.1,321,25,5.7,0.00001,0.00002,24.5,27.7,8,0,0,0.0,0.19,0.00,0.00
15min,AgWx,bigpiney,439,27FEB2021:06:30:00,6.2,12.43,6.1,5.7,6.0,6.6,5.5,76,77,75,0.149,0.0,0.8,-0.7,0,1.7,18,19,4.9,-0.00000,-0.00000,24.5,27.6,8,0,0,0.0,0.19,0.00,0.00
15min,AgWx,bigpiney,439,27FEB2021:06:45:00,6.4,12.44,9.2,8.2,6.7,8.2,5.5,75,76,73,0.161,0.4,1.3,-0.7,1.206,2.0,344,39,3.7,0.00000,0.00000,24.4,27.6,8,0,0,0.0,0.19,0.00,0.00
15min,AgWx,bigpiney,439,27FEB2021:07:00:00,6.9,12.45,10.2,9.2,9.3,9.7,8.2,70,73,69,0.162,1.4,1.8,0.9,2.981,1.9,33,38,3.3,0.00001,0.00001,24.3,27.6,8,2,0,0.0,0.19,0.00,0.00
15min,AgWx,bigpiney,439,27FEB2021:07:15:00,7.3,12.59,9.7,8.8,9.4,10.3,8.7,70,71,68,0.160,1.5,2.5,0.4,0,0.8,40,27,2.9,-0.00001,-0.00001,24.3,27.6,8,11,0,0.0,0.19,0.00,0.00
15min,AgWx,bigpiney,439,27FEB2021:07:30:00,7.5,12.91,6.7,8.2,9.3,10.1,8.2,71,72,70,0.155,1.7,2.6,0.5,0,1.8,257,12,3.0,-0.00010,-0.00008,24.2,27.5,8,33,0,0.0,0.19,0.00,0.00
15min,AgWx,bigpiney,439,27FEB2021:07:45:00,7.7,15.01,6.2,5.2,5.6,8.0,4.1,74,78,70,0.151,-1.0,1.3,-2.7,4.801,3.6,104,19,5.9,0.00001,0.00005,24.2,27.5,8,65,0,0.0,0.19,0.00,0.00
15min,AgWx,bigpiney,439,27FEB2021:08:00:00,7.8,15,5.1,4.6,5.1,5.5,4.6,78,78,77,0.147,-0.4,0.1,-0.7,2.28,4.1,114,9.6,5.3,0.00009,0.00014,24.1,27.5,8,87,0,0.0,0.19,0.00,0.00
15min,AgWx,bigpiney,439,27FEB2021:08:15:00,8.0,14.98,7.8,6.5,5.3,6.5,4.6,79,79,78,0.163,0.2,1.5,-0.6,0.702,1.9,143,52,4.3,0.00014,0.00017,24.0,27.5,8,101,0,0.0,0.19,0.00,0.00
15min,AgWx,bigpiney,439,27FEB2021:08:30:00,8.5,14.97,8.8,8.3,7.5,8.4,6.6,79,80,78,0.176,2.4,3.3,1.6,2.368,1.3,193,10,3.0,0.00021,0.00024,24.0,27.4,8,135,0,0.0,0.19,0.00,0.00
15min,AgWx,bigpiney,439,27FEB2021:08:45:00,9.5,14.99,12.0,11.0,9.5,11.1,8.4,78,79,77,0.194,3.9,5.3,3.0,3.814,1.7,226,37,3.8,0.00031,0.00036,24.0,27.4,8,175,0,0.0,0.19,0.00,0.00
15min,AgWx,bigpiney,439,27FEB2021:09:00:00,11.0,15,16.4,15.8,14.1,15.9,11.1,63,77,55,0.176,3.9,5.6,2.6,7.103,6.2,302,12,10.0,0.00049,0.00064,24.0,27.3,8,198,0,0.0,0.19,0.00,0.00